Погода в Днепропетровске

Погода в Днепропетровске : погода сейчас, прогноз погоды и архив. Всё, что Вы хотите узнать о погоде в Днепропетровске!

Хотите узнать прогноз погоды в Днепропетровске? Тогда Вам сюда: Погода в Днепропетровске

Поиск расширенной информации на нашем сайте:

Другие новости

Новости СМИ2

Главная страница сайта

Новости сайта

03.07.2017

Напоминаем, что на нашем специализированном сайте Метеоцентр.Азия вы можете получить высокодетализированные автоматические прогнозы погоды по пунктам России, СНГ и мира в авиационном формате (включающие направление и скорость ветра, видимость, явления погоды, количество и форму облачности, нижнюю и верхнюю границу облачности).

Рекомендуем: Подольск и ремонт ноутбуков Щербинка. Ремонт ноутбуков в Подольске лучшие цены в Москве.

Погода в Днепропетровске - сегодня

Время (UTC), дата Ветер
(°,м/с) 
Видим.   Явления Облачность Т
(°С)
Тd
(°С)
f(%) Тe
(°С)
Pmin
(гПа)
dP
(гПа)
Po
(мм)
O2
(г/м3)
Тmin Tmax R s Состояние
почвы
09 19.09.17 030 (СВ) 10 км    ясно 
+23.6 +7.4 35 +24  1017.1  0.2  750  277           
12 19.09.17 020 (С) 10 км    4/0 средняя 
[Ac trans]
+26.8 +3.9 23 +27  1016.1  -0.8  750  274           
15 19.09.17 030 (СВ) 10 км    ясно 
+23.3 +5.5 32 +23  1015.7  -0.6  749  277           
18 19.09.17 040 (СВ) 10 км    ясно 
+19 +5.6 41 +19  1016.5  0.5  750  281    +27.2       
21 19.09.17 060 (СВ) 10 км    ясно 
+17.6 +3.4 39 +17  1016.3  -0.3  749  283           
00 20.09.17 070 (В) 10 км    ясно 
+15.9 +4.1 45 +15  1015.7  -0.7  749  284           
03 20.09.17 060 (СВ) 10 км    ясно 
+15.3 +4.1 47 +15  1015  -0.7  748  285           
06 20.09.17 100 (В) 10 км    3/0 средняя 
[Ac trans]
+20 +7.1 43 +20  1015.3  0.6  749  280  +15  +2.7       
09 20.09.17 100 (В) 10 км    ясно 
+29.2 +9.7 30 +30  1014.1  -0.7  748  271           
12 20.09.17 120 (ЮВ) 10 км    3/3 1500 м 
[Cu hum]
+32.9 +11 26 +35  1011.7  -2.1  747  267           
15 20.09.17 130 (ЮВ) 10 км    ясно 
+30.5 +8.1 25 +31  1010.8  -1  746  269           
18 20.09.17 120 (ЮВ) 10 км    ясно 
+23 +7.6 37 +23  1011.7  0.4  746  276    +33.2       
21 20.09.17 120 (ЮВ) 10 км    ясно 
+20.9 +7.6 42 +21  1011.6  -0.2  746  278           
00 21.09.17 120 (ЮВ) 10 км    ясно 
+20.7 +8.8 46 +21  1011.8  0.2  746  278           
03 21.09.17 120 (ЮВ) 10 км    ясно 
+19.2 +9.2 52 +20  1012.1  0.2  746  279           
06 21.09.17 130 (ЮВ) 10 км    ясно 
+24 +10.3 42 +26  1011.8  746  275  +19.1         
09 21.09.17 120 (ЮВ) 10 км    ясно 
+32.2 +11.7 29 +36  1010.6  -0.7  746  267           
12 21.09.17 120 (ЮВ) 10 км    4/0 средняя 
[Ac trans]
+34.5 +8.4 20 +35  1009.4  -1.1  745  265           
15 21.09.17 110 (В) 10 км    5/0 средняя 
[Ac trans]
+31.3 +9.7 26 +32  1009.4  -0.2  745  268           
18 21.09.17 100 (В) 10 км    3/0 средняя 
[Ac trans]
+24.5 +10.3 41 +26  1010.2  0.5  745  274           
21 21.09.17 100 (В) 10 км    6/0 средняя 
[Ac trans]
+23.9 +10.2 42 +25  1010.4  0.1  745  274           
00 22.09.17 070 (В) 10 км    3/0 средняя 
[Ac trans]
+20.5 +14 66 +28  1010.3  -0.3  745  276           
03 22.09.17 090 (В) 10 км    ясно 
+18.8 +12 65 +23  1010.3  -0.1  745  279           
06 22.09.17 090 (В) 10 км    ясно 
+23 +9.9 43 +24  1010  745  275  +18.3         
09 22.09.17 100 (В) 11  10 км    ясно 
+29.9 +7.9 25 +30  1009.7  745  269           
Время (UTC), дата Ветер
(°,м/с) 
Видим.   Явления Облачность Т
(°С)
Тd
(°С)
f(%) Тe
(°С)
Pmin
(гПа)
dP
(гПа)
Po
(мм)
O2
(г/м3)
Тmin Tmax R s Состояние
почвы

Для получения пояснительной информации подведите курсор к названию столбца.

ПОГОДА в Днепропетровске - архив

Всё, что Вы хотите узнать о погоде в Днепропетровске - удобно и подробно!

Выберите нужную дату (начиная с 1 января 2015* года) и нажмите кнопку "Найти".
Будут отображены архивные сводки погоды по пункту Днепропетровск, начиная с указанной даты.


Отображать данные в формате CSV (для использования в таблицах Excel)


Внимание! Наш архив погоды предназначен исключительно для личного некоммерческого использования в познавательных целях. Если Вам необходимы официальные справки о состоянии погоды (для производственных, юридических, коммерческих и т.п. целей), обращайтесь в органы Росгидромета.

*Примечание: данная дата относится к архиву по метеостанциям СССР (Россия, СНГ, Балтия).
Архив по метеостанциям Зарубежной Европы и Азии (кроме Китая) хранится 10 дней, по другим регионам земного шара (Китай, Африка, Америка, Австралия, Океания) - 1 день.

Днепропетровск - район местоположения метеостанции


Название, широта, долгота, высота метеостанции:
Днепропетровск (Кайдаки) 48.6°ш. 35°д. 143 м над ур. моря [Украина]

Дополнительная информация

В oтличие oт бoльшинства пoгoдных сайтoв мы публикуем пoдрoбную метеoинфoрмацию в детальнoм прoфессиoнальнoм фoрмате.

Характеристики температуры и влажнoсти вoздуха измеряются на высoте 2 м в тени вдали oт зданий и деревьев.
Скoрoсть ветра измеряется на высoте 10 м (на урoвне рoста челoвека скoрoсть ветра ниже в 1.5-2 раза). Если метеoстанция нахoдится в гoрoде или в лесу, тo скoрoсть ветра занижена на 2-4 м/с пo сравнению с oткрытым местoм. Скoрoсть ветра над акватoриями крупных рек и oзёр, а также на вершинах хoлмoв на 2-5 м/с выше, чем в oбычных услoвиях.
Атмoсфернoе давление в разных тoчках местнoсти мoжет значительнo oтличаться oт давления на метеoстанции, в зависимoсти oт услoвий рельефа (при пoдъёме на 10 м давление пoнижается примернo на 1 мм рт.ст.).